Year,Month,Day,Hour,Minute,Value (Times are PST for windspeed in km/hr)
2016,02,06,00,00,6.30
2016,02,06,00,01,4.80
2016,02,06,00,02,4.80
2016,02,06,00,03,3.70
2016,02,06,00,04,3.70
2016,02,06,00,05,5.40
2016,02,06,00,06,2.40
2016,02,06,00,07,0.60
2016,02,06,00,08,2.50
2016,02,06,00,09,1.90
2016,02,06,00,10,3.50
2016,02,06,00,11,4.30
2016,02,06,00,12,6.70
2016,02,06,00,13,5.80
2016,02,06,00,14,4.70
2016,02,06,00,15,3.30
2016,02,06,00,16,4.60
2016,02,06,00,17,4.80
2016,02,06,00,18,4.00
2016,02,06,00,19,0.60
2016,02,06,00,20,1.40
2016,02,06,00,21,2.70
2016,02,06,00,22,0.20
2016,02,06,00,23,0.10
2016,02,06,00,24,0.20
2016,02,06,00,25,0.20
2016,02,06,00,26,1.50
2016,02,06,00,27,2.60
2016,02,06,00,28,2.10
2016,02,06,00,29,3.10
2016,02,06,00,30,2.30
2016,02,06,00,31,2.60
2016,02,06,00,32,3.40
2016,02,06,00,33,2.60
2016,02,06,00,34,1.30
2016,02,06,00,35,1.00
2016,02,06,00,36,2.30
2016,02,06,00,37,4.40
2016,02,06,00,38,3.00
2016,02,06,00,39,1.90
2016,02,06,00,40,2.30
2016,02,06,00,41,2.00
2016,02,06,00,42,3.70
2016,02,06,00,43,3.80
2016,02,06,00,44,1.70
2016,02,06,00,45,1.60
2016,02,06,00,46,1.90
2016,02,06,00,47,3.90
2016,02,06,00,48,2.60
2016,02,06,00,49,4.10
2016,02,06,00,50,4.40
2016,02,06,00,51,5.20
2016,02,06,00,52,5.50
2016,02,06,00,53,4.40
2016,02,06,00,54,4.20
2016,02,06,00,55,2.10
2016,02,06,00,56,1.40
2016,02,06,00,57,0.50
2016,02,06,00,58,1.50
2016,02,06,00,59,0.30
2016,02,06,01,00,1.20
2016,02,06,01,01,1.60
2016,02,06,01,02,3.80
2016,02,06,01,03,3.00
2016,02,06,01,04,1.20
2016,02,06,01,05,0.20
2016,02,06,01,06,0.70
2016,02,06,01,07,0.30
2016,02,06,01,08,2.70
2016,02,06,01,09,3.80
2016,02,06,01,10,2.80
2016,02,06,01,11,3.40
2016,02,06,01,12,3.20
2016,02,06,01,13,3.50
2016,02,06,01,14,2.80
2016,02,06,01,15,6.30
2016,02,06,01,16,6.70
2016,02,06,01,17,6.70
2016,02,06,01,18,8.10
2016,02,06,01,19,9.30
2016,02,06,01,20,9.50
2016,02,06,01,21,6.70
2016,02,06,01,22,6.60
2016,02,06,01,23,5.30
2016,02,06,01,24,2.90
2016,02,06,01,25,4.40
2016,02,06,01,26,4.20
2016,02,06,01,27,5.30
2016,02,06,01,28,4.20
2016,02,06,01,29,3.60
2016,02,06,01,30,2.40
2016,02,06,01,31,2.40
2016,02,06,01,32,3.10
2016,02,06,01,33,3.00
2016,02,06,01,34,4.30
2016,02,06,01,35,4.90
2016,02,06,01,36,3.50
2016,02,06,01,37,4.70
2016,02,06,01,38,4.30
2016,02,06,01,39,2.20
2016,02,06,01,40,2.80
2016,02,06,01,41,1.70
2016,02,06,01,42,0.40
2016,02,06,01,43,0.00
2016,02,06,01,44,1.50
2016,02,06,01,45,2.70
2016,02,06,01,46,0.40
2016,02,06,01,47,0.30
2016,02,06,01,48,0.00
2016,02,06,01,49,0.00
2016,02,06,01,50,0.00
2016,02,06,01,51,0.00
2016,02,06,01,52,1.40
2016,02,06,01,53,3.60
2016,02,06,01,54,2.00
2016,02,06,01,55,1.30
2016,02,06,01,56,1.50
2016,02,06,01,57,1.20
2016,02,06,01,58,0.00
2016,02,06,01,59,0.00
2016,02,06,02,00,0.00
2016,02,06,02,01,0.00
2016,02,06,02,02,0.00
2016,02,06,02,03,0.90
2016,02,06,02,04,1.40
2016,02,06,02,05,4.20
2016,02,06,02,06,4.20
2016,02,06,02,07,8.00
2016,02,06,02,08,6.80
2016,02,06,02,09,4.20
2016,02,06,02,10,3.50
2016,02,06,02,11,3.80
2016,02,06,02,12,4.10
2016,02,06,02,13,4.90
2016,02,06,02,14,8.50
2016,02,06,02,15,7.30
2016,02,06,02,16,7.00
2016,02,06,02,17,7.20
2016,02,06,02,18,7.60
2016,02,06,02,19,9.90
2016,02,06,02,20,9.10
2016,02,06,02,21,8.70
2016,02,06,02,22,10.40
2016,02,06,02,23,10.70
2016,02,06,02,24,9.90
2016,02,06,02,25,7.70
2016,02,06,02,26,9.60
2016,02,06,02,27,7.70
2016,02,06,02,28,7.00
2016,02,06,02,29,6.80
2016,02,06,02,30,6.40
2016,02,06,02,31,6.20
2016,02,06,02,32,6.00
2016,02,06,02,33,6.80
2016,02,06,02,34,5.70
2016,02,06,02,35,6.70
2016,02,06,02,36,6.50
2016,02,06,02,37,5.30
2016,02,06,02,38,5.50
2016,02,06,02,39,5.20
2016,02,06,02,40,3.90
2016,02,06,02,41,4.30
2016,02,06,02,42,2.80
2016,02,06,02,43,3.10
2016,02,06,02,44,5.30
2016,02,06,02,45,4.70
2016,02,06,02,46,2.70
2016,02,06,02,47,3.50
2016,02,06,02,48,3.30
2016,02,06,02,49,2.20
2016,02,06,02,50,2.40
2016,02,06,02,51,3.30
2016,02,06,02,52,3.30
2016,02,06,02,53,3.40
2016,02,06,02,54,5.10
2016,02,06,02,55,4.50
2016,02,06,02,56,5.00
2016,02,06,02,57,6.60
2016,02,06,02,58,6.80
2016,02,06,02,59,8.50
2016,02,06,03,00,7.50
2016,02,06,03,01,7.70
2016,02,06,03,02,5.00
2016,02,06,03,03,6.40
2016,02,06,03,04,4.30
2016,02,06,03,05,5.30
2016,02,06,03,06,5.80
2016,02,06,03,07,5.50
2016,02,06,03,08,6.30
2016,02,06,03,09,7.50
2016,02,06,03,10,6.80
2016,02,06,03,11,6.40
2016,02,06,03,12,2.80
2016,02,06,03,13,4.90
2016,02,06,03,14,4.90
2016,02,06,03,15,5.00
2016,02,06,03,16,4.30
2016,02,06,03,17,6.40
2016,02,06,03,18,5.60
2016,02,06,03,19,7.60
2016,02,06,03,20,7.80
2016,02,06,03,21,6.30
2016,02,06,03,22,6.10
2016,02,06,03,23,3.30
2016,02,06,03,24,2.60
2016,02,06,03,25,2.60
2016,02,06,03,26,1.60
2016,02,06,03,27,1.00
2016,02,06,03,28,2.60
2016,02,06,03,29,3.90
2016,02,06,03,30,4.60
2016,02,06,03,31,2.40
2016,02,06,03,32,3.00
2016,02,06,03,33,3.40
2016,02,06,03,34,4.90
2016,02,06,03,35,6.40
2016,02,06,03,36,3.90
2016,02,06,03,37,4.80
2016,02,06,03,38,3.50
2016,02,06,03,39,2.90
2016,02,06,03,40,3.10
2016,02,06,03,41,2.70
2016,02,06,03,42,2.10
2016,02,06,03,43,2.60
2016,02,06,03,44,1.60
2016,02,06,03,45,0.10
2016,02,06,03,46,0.00
2016,02,06,03,47,1.50
2016,02,06,03,48,3.20
2016,02,06,03,49,2.20
2016,02,06,03,50,3.20
2016,02,06,03,51,5.30
2016,02,06,03,52,4.70
2016,02,06,03,53,6.00
2016,02,06,03,54,5.30
2016,02,06,03,55,4.00
2016,02,06,03,56,4.90
2016,02,06,03,57,4.70
2016,02,06,03,58,3.90
2016,02,06,03,59,3.50
2016,02,06,04,00,1.30
2016,02,06,04,01,2.30
2016,02,06,04,02,1.90
2016,02,06,04,03,3.60
2016,02,06,04,04,6.40
2016,02,06,04,05,5.50
2016,02,06,04,06,4.80
2016,02,06,04,07,3.70
2016,02,06,04,08,4.10
2016,02,06,04,09,3.60
2016,02,06,04,10,2.50
2016,02,06,04,11,3.20
2016,02,06,04,12,3.50
2016,02,06,04,13,3.50
2016,02,06,04,14,3.40
2016,02,06,04,15,2.90
2016,02,06,04,16,1.50
2016,02,06,04,17,1.40
2016,02,06,04,18,3.00
2016,02,06,04,19,2.70
2016,02,06,04,20,1.30
2016,02,06,04,21,1.70
2016,02,06,04,22,3.90
2016,02,06,04,23,3.40
2016,02,06,04,24,2.30
2016,02,06,04,25,2.30
2016,02,06,04,26,3.00
2016,02,06,04,27,3.30
2016,02,06,04,28,3.20
2016,02,06,04,29,3.00
2016,02,06,04,30,3.50
2016,02,06,04,31,3.60
2016,02,06,04,32,3.30
2016,02,06,04,33,2.20
2016,02,06,04,34,1.10
2016,02,06,04,35,1.70
2016,02,06,04,36,2.10
2016,02,06,04,37,2.40
2016,02,06,04,38,4.30
2016,02,06,04,39,4.10
2016,02,06,04,40,3.90
2016,02,06,04,41,2.60
2016,02,06,04,42,3.70
2016,02,06,04,43,3.40
2016,02,06,04,44,3.70
2016,02,06,04,45,5.30
2016,02,06,04,46,5.90
2016,02,06,04,47,4.30
2016,02,06,04,48,4.90
2016,02,06,04,49,4.30
2016,02,06,04,50,4.30
2016,02,06,04,51,2.50
2016,02,06,04,52,3.40
2016,02,06,04,53,3.00
2016,02,06,04,54,3.90
2016,02,06,04,55,4.70
2016,02,06,04,56,3.30
2016,02,06,04,57,4.10
2016,02,06,04,58,2.90
2016,02,06,04,59,3.40
2016,02,06,05,00,4.10
2016,02,06,05,01,4.20
2016,02,06,05,02,3.30
2016,02,06,05,03,2.90
2016,02,06,05,04,3.50
2016,02,06,05,05,3.70
2016,02,06,05,06,3.50
2016,02,06,05,07,3.10
2016,02,06,05,08,3.60
2016,02,06,05,09,5.10
2016,02,06,05,10,4.60
2016,02,06,05,11,4.40
2016,02,06,05,12,3.90
2016,02,06,05,13,3.60
2016,02,06,05,14,3.90
2016,02,06,05,15,4.80
2016,02,06,05,16,4.40
2016,02,06,05,17,3.00
2016,02,06,05,18,2.30
2016,02,06,05,19,1.70
2016,02,06,05,20,3.10
2016,02,06,05,21,3.60
2016,02,06,05,22,3.70
2016,02,06,05,23,3.90
2016,02,06,05,24,4.90
2016,02,06,05,25,4.70
2016,02,06,05,26,5.70
2016,02,06,05,27,5.70
2016,02,06,05,28,3.40
2016,02,06,05,29,5.60
2016,02,06,05,30,3.80
2016,02,06,05,31,2.80
2016,02,06,05,32,2.60
2016,02,06,05,33,0.90
2016,02,06,05,34,2.50
2016,02,06,05,35,5.50
2016,02,06,05,36,4.10
2016,02,06,05,37,2.20
2016,02,06,05,38,2.20
2016,02,06,05,39,2.00
2016,02,06,05,40,2.30
2016,02,06,05,41,3.90
2016,02,06,05,42,3.70
2016,02,06,05,43,4.50
2016,02,06,05,44,5.40
2016,02,06,05,45,5.70
2016,02,06,05,46,5.30
2016,02,06,05,47,6.00
2016,02,06,05,48,6.30
2016,02,06,05,49,6.50
2016,02,06,05,50,6.50
2016,02,06,05,51,7.30
2016,02,06,05,52,7.20
2016,02,06,05,53,6.10
2016,02,06,05,54,4.40
2016,02,06,05,55,5.20
2016,02,06,05,56,7.60
2016,02,06,05,57,9.20
2016,02,06,05,58,7.30
2016,02,06,05,59,7.90
2016,02,06,06,00,6.90
2016,02,06,06,01,4.40
2016,02,06,06,02,3.70
2016,02,06,06,03,8.10
2016,02,06,06,04,5.30
2016,02,06,06,05,6.10
2016,02,06,06,06,7.60
2016,02,06,06,07,8.00
2016,02,06,06,08,7.00
2016,02,06,06,09,6.70
2016,02,06,06,10,8.70
2016,02,06,06,11,7.30
2016,02,06,06,12,7.50
2016,02,06,06,13,6.80
2016,02,06,06,14,7.10
2016,02,06,06,15,8.40
2016,02,06,06,16,7.60
2016,02,06,06,17,5.80
2016,02,06,06,18,6.80
2016,02,06,06,19,7.40
2016,02,06,06,20,5.10
2016,02,06,06,21,5.00
2016,02,06,06,22,6.60
2016,02,06,06,23,5.70
2016,02,06,06,24,3.90
2016,02,06,06,25,3.30
2016,02,06,06,26,2.70
2016,02,06,06,27,1.70
2016,02,06,06,28,1.90
2016,02,06,06,29,1.90
2016,02,06,06,30,1.40
2016,02,06,06,31,0.30
2016,02,06,06,32,1.30
2016,02,06,06,33,3.10
2016,02,06,06,34,2.50
2016,02,06,06,35,3.00
2016,02,06,06,36,2.30
2016,02,06,06,37,2.80
2016,02,06,06,38,3.90
2016,02,06,06,39,4.30
2016,02,06,06,40,4.40
2016,02,06,06,41,2.40
2016,02,06,06,42,5.40
2016,02,06,06,43,5.10
2016,02,06,06,44,3.50
2016,02,06,06,45,4.10
2016,02,06,06,46,3.90
2016,02,06,06,47,4.50
2016,02,06,06,48,5.10
2016,02,06,06,49,3.60
2016,02,06,06,50,4.40
2016,02,06,06,51,5.60
2016,02,06,06,52,3.30
2016,02,06,06,53,4.40
2016,02,06,06,54,4.50
2016,02,06,06,55,4.10
2016,02,06,06,56,4.10
2016,02,06,06,57,5.10
2016,02,06,06,58,4.40
2016,02,06,06,59,4.70
2016,02,06,07,00,4.90
2016,02,06,07,01,5.20
2016,02,06,07,02,5.90
2016,02,06,07,03,7.80
2016,02,06,07,04,8.10
2016,02,06,07,05,6.00
2016,02,06,07,06,6.60
2016,02,06,07,07,7.10
2016,02,06,07,08,7.30
2016,02,06,07,09,7.00
2016,02,06,07,10,7.30
2016,02,06,07,11,6.40
2016,02,06,07,12,6.70
2016,02,06,07,13,7.30
2016,02,06,07,14,7.80
2016,02,06,07,15,6.50
2016,02,06,07,16,6.20
2016,02,06,07,17,6.10
2016,02,06,07,18,7.80
2016,02,06,07,19,5.10
2016,02,06,07,20,3.40
2016,02,06,07,21,7.00
2016,02,06,07,22,6.40
2016,02,06,07,23,4.90
2016,02,06,07,24,5.60
2016,02,06,07,25,5.10
2016,02,06,07,26,4.40
2016,02,06,07,27,5.60
2016,02,06,07,28,4.40
2016,02,06,07,29,3.70
2016,02,06,07,30,3.30
2016,02,06,07,31,6.40
2016,02,06,07,32,4.40
2016,02,06,07,33,5.10
2016,02,06,07,34,3.10
2016,02,06,07,35,3.70
2016,02,06,07,36,4.60
2016,02,06,07,37,4.80
2016,02,06,07,38,4.90
2016,02,06,07,39,3.70
2016,02,06,07,40,5.70
2016,02,06,07,41,5.60
2016,02,06,07,42,6.10
2016,02,06,07,43,4.80
2016,02,06,07,44,6.60
2016,02,06,07,45,5.00
2016,02,06,07,46,6.60
2016,02,06,07,47,7.80
2016,02,06,07,48,5.60
2016,02,06,07,49,4.00
2016,02,06,07,50,5.70
2016,02,06,07,51,5.70
2016,02,06,07,52,5.80
2016,02,06,07,53,7.80
2016,02,06,07,54,7.10
2016,02,06,07,55,6.40
2016,02,06,07,56,4.80
2016,02,06,07,57,2.60
2016,02,06,07,58,4.20
2016,02,06,07,59,4.10
2016,02,06,08,00,2.50
2016,02,06,08,01,3.90
2016,02,06,08,02,6.40
2016,02,06,08,03,6.40
2016,02,06,08,04,2.00
2016,02,06,08,05,4.60
2016,02,06,08,06,5.50
2016,02,06,08,07,4.30
2016,02,06,08,08,5.60
2016,02,06,08,09,4.90
2016,02,06,08,10,5.60
2016,02,06,08,11,5.50
2016,02,06,08,12,7.20
2016,02,06,08,13,7.10
2016,02,06,08,14,4.30
2016,02,06,08,15,5.70
2016,02,06,08,16,5.10
2016,02,06,08,17,5.10
2016,02,06,08,18,6.70
2016,02,06,08,19,7.00
2016,02,06,08,20,6.00
2016,02,06,08,21,7.70
2016,02,06,08,22,8.50
2016,02,06,08,23,6.70
2016,02,06,08,24,5.20
2016,02,06,08,25,4.40
2016,02,06,08,26,6.40
2016,02,06,08,27,5.60
2016,02,06,08,28,7.50
2016,02,06,08,29,8.70
2016,02,06,08,30,7.90
2016,02,06,08,31,7.00
2016,02,06,08,32,6.90
2016,02,06,08,33,8.20
2016,02,06,08,34,8.10
2016,02,06,08,35,8.00
2016,02,06,08,36,7.70
2016,02,06,08,37,7.20
2016,02,06,08,38,8.10
2016,02,06,08,39,5.30
2016,02,06,08,40,5.70
2016,02,06,08,41,5.20
2016,02,06,08,42,5.10
2016,02,06,08,43,6.00
2016,02,06,08,44,5.20
2016,02,06,08,45,6.50
2016,02,06,08,46,7.00
2016,02,06,08,47,5.70
2016,02,06,08,48,6.40
2016,02,06,08,49,7.00
2016,02,06,08,50,5.50
2016,02,06,08,51,6.80
2016,02,06,08,52,7.20
2016,02,06,08,53,5.90
2016,02,06,08,54,6.20
2016,02,06,08,55,5.10
2016,02,06,08,56,4.70
2016,02,06,08,57,4.50
2016,02,06,08,58,4.00
2016,02,06,08,59,4.00
2016,02,06,09,00,1.50
2016,02,06,09,01,2.50
2016,02,06,09,02,2.20
2016,02,06,09,03,2.40
2016,02,06,09,04,1.90
2016,02,06,09,05,2.70
2016,02,06,09,06,2.70
2016,02,06,09,07,3.10
2016,02,06,09,08,3.60
2016,02,06,09,09,2.70
2016,02,06,09,10,2.00
2016,02,06,09,11,2.10
2016,02,06,09,12,3.90
2016,02,06,09,13,3.00
2016,02,06,09,14,2.50
2016,02,06,09,15,2.00
2016,02,06,09,16,2.40
2016,02,06,09,17,2.70
2016,02,06,09,18,1.40
2016,02,06,09,19,0.00
2016,02,06,09,20,0.00
2016,02,06,09,21,0.00
2016,02,06,09,22,0.00
2016,02,06,09,23,0.00
2016,02,06,09,24,0.00
2016,02,06,09,25,0.00
2016,02,06,09,26,0.00
2016,02,06,09,27,0.00
2016,02,06,09,28,0.00
2016,02,06,09,29,0.00
2016,02,06,09,30,0.60
2016,02,06,09,31,1.90
2016,02,06,09,32,0.40
2016,02,06,09,33,0.80
2016,02,06,09,34,3.10
2016,02,06,09,35,3.40
2016,02,06,09,36,4.00
2016,02,06,09,37,4.30
2016,02,06,09,38,3.60
2016,02,06,09,39,2.50
2016,02,06,09,40,3.10
2016,02,06,09,41,3.50
2016,02,06,09,42,3.10
2016,02,06,09,43,2.60
2016,02,06,09,44,3.30
2016,02,06,09,45,3.70
2016,02,06,09,46,2.60
2016,02,06,09,47,1.40
2016,02,06,09,48,1.90
2016,02,06,09,49,1.70
2016,02,06,09,50,0.50
2016,02,06,09,51,0.00
2016,02,06,09,52,0.00
2016,02,06,09,53,0.90
2016,02,06,09,54,0.60
2016,02,06,09,55,0.20
2016,02,06,09,56,0.00
2016,02,06,09,57,0.00
2016,02,06,09,58,0.00
2016,02,06,09,59,0.00
2016,02,06,10,00,0.10
2016,02,06,10,01,1.70
2016,02,06,10,02,2.50
2016,02,06,10,03,2.50
2016,02,06,10,04,3.90
2016,02,06,10,05,2.60
2016,02,06,10,06,3.00
2016,02,06,10,07,2.70
2016,02,06,10,08,2.00
2016,02,06,10,09,1.50
2016,02,06,10,10,1.30
2016,02,06,10,11,0.80
2016,02,06,10,12,0.00
2016,02,06,10,13,0.00
2016,02,06,10,14,0.90
2016,02,06,10,15,0.80
2016,02,06,10,16,0.80
2016,02,06,10,17,0.90
2016,02,06,10,18,0.50
2016,02,06,10,19,0.30
2016,02,06,10,20,0.00
2016,02,06,10,21,0.00
2016,02,06,10,22,0.00
2016,02,06,10,23,0.00
2016,02,06,10,24,0.00
2016,02,06,10,25,0.00
2016,02,06,10,26,0.60
2016,02,06,10,27,0.50
2016,02,06,10,28,1.00
2016,02,06,10,29,1.00
2016,02,06,10,30,0.90
2016,02,06,10,31,1.50
2016,02,06,10,32,1.40
2016,02,06,10,33,0.90
2016,02,06,10,34,1.20
2016,02,06,10,35,3.00
2016,02,06,10,36,4.70
2016,02,06,10,37,4.70
2016,02,06,10,38,5.00
2016,02,06,10,39,3.90
2016,02,06,10,40,4.30
2016,02,06,10,41,3.90
2016,02,06,10,42,3.10
2016,02,06,10,43,3.50
2016,02,06,10,44,3.10
2016,02,06,10,45,4.70
2016,02,06,10,46,4.30
2016,02,06,10,47,4.90
2016,02,06,10,48,3.10
2016,02,06,10,49,2.40
2016,02,06,10,50,2.40
2016,02,06,10,51,3.60
2016,02,06,10,52,3.40
2016,02,06,10,53,2.80
2016,02,06,10,54,3.90
2016,02,06,10,55,5.10
2016,02,06,10,56,5.10
2016,02,06,10,57,4.30
2016,02,06,10,58,2.80
2016,02,06,10,59,4.10
2016,02,06,11,00,3.30
2016,02,06,11,01,3.80
2016,02,06,11,02,4.60
2016,02,06,11,03,5.90
2016,02,06,11,04,6.40
2016,02,06,11,05,5.70
2016,02,06,11,06,3.80
2016,02,06,11,07,6.80
2016,02,06,11,08,8.00
2016,02,06,11,09,9.70
2016,02,06,11,10,8.50
2016,02,06,11,11,6.80
2016,02,06,11,12,8.90
2016,02,06,11,13,6.30
2016,02,06,11,14,7.30
2016,02,06,11,15,6.10
2016,02,06,11,16,7.50
2016,02,06,11,17,6.40
2016,02,06,11,18,7.10
2016,02,06,11,19,7.70
2016,02,06,11,20,7.70
2016,02,06,11,21,6.60
2016,02,06,11,22,7.00
2016,02,06,11,23,8.30
2016,02,06,11,24,7.30
2016,02,06,11,25,9.80
2016,02,06,11,26,8.00
2016,02,06,11,27,10.50
2016,02,06,11,28,9.20
2016,02,06,11,29,9.30
2016,02,06,11,30,8.10
2016,02,06,11,31,9.30
2016,02,06,11,32,11.10
2016,02,06,11,33,9.20
2016,02,06,11,34,9.10
2016,02,06,11,35,7.10
2016,02,06,11,36,8.10
2016,02,06,11,37,9.30
2016,02,06,11,38,9.70
2016,02,06,11,39,9.40
2016,02,06,11,40,8.50
2016,02,06,11,41,7.70
2016,02,06,11,42,8.00
2016,02,06,11,43,7.40
2016,02,06,11,44,8.30
2016,02,06,11,45,8.90
2016,02,06,11,46,9.20
2016,02,06,11,47,10.00
2016,02,06,11,48,10.50
2016,02,06,11,49,7.30
2016,02,06,11,50,6.70
2016,02,06,11,51,7.70
2016,02,06,11,52,8.80
2016,02,06,11,53,7.70
2016,02,06,11,54,7.30
2016,02,06,11,55,10.50
2016,02,06,11,56,8.80
2016,02,06,11,57,9.60
2016,02,06,11,58,9.10
2016,02,06,11,59,12.40
2016,02,06,12,00,9.40
2016,02,06,12,01,10.40
2016,02,06,12,02,7.90
2016,02,06,12,03,7.30
2016,02,06,12,04,8.60
2016,02,06,12,05,7.60
2016,02,06,12,06,8.30
2016,02,06,12,07,7.70
2016,02,06,12,08,8.50
2016,02,06,12,09,5.90
2016,02,06,12,10,10.50
2016,02,06,12,11,11.40
2016,02,06,12,12,10.50
2016,02,06,12,13,9.80
2016,02,06,12,14,12.80
2016,02,06,12,15,10.50
2016,02,06,12,16,10.70
2016,02,06,12,17,10.40
2016,02,06,12,18,10.50
2016,02,06,12,19,7.80
2016,02,06,12,20,7.50
2016,02,06,12,21,10.00
2016,02,06,12,22,9.90
2016,02,06,12,23,9.70
2016,02,06,12,24,7.00
2016,02,06,12,25,8.50
2016,02,06,12,26,8.40
2016,02,06,12,27,9.10
2016,02,06,12,28,11.30
2016,02,06,12,29,8.30
2016,02,06,12,30,9.50
2016,02,06,12,31,10.40
2016,02,06,12,32,9.00
2016,02,06,12,33,9.70
2016,02,06,12,34,6.40
2016,02,06,12,35,8.70
2016,02,06,12,36,8.00
2016,02,06,12,37,7.80
2016,02,06,12,38,11.10
2016,02,06,12,39,12.60
2016,02,06,12,40,13.80
2016,02,06,12,41,11.90
2016,02,06,12,42,9.70
2016,02,06,12,43,9.20
2016,02,06,12,44,6.40
2016,02,06,12,45,5.50
2016,02,06,12,46,9.60
2016,02,06,12,47,6.80
2016,02,06,12,48,9.20
2016,02,06,12,49,9.90
2016,02,06,12,50,8.40
2016,02,06,12,51,6.10
2016,02,06,12,52,8.90
2016,02,06,12,53,7.30
2016,02,06,12,54,6.40
2016,02,06,12,55,6.80
2016,02,06,12,56,8.50
2016,02,06,12,57,7.70
2016,02,06,12,58,9.20
2016,02,06,12,59,9.40
2016,02,06,13,00,9.40
2016,02,06,13,01,9.10
2016,02,06,13,02,13.10
2016,02,06,13,03,12.20
2016,02,06,13,04,9.10
2016,02,06,13,05,9.50
2016,02,06,13,06,11.30
2016,02,06,13,07,8.50
2016,02,06,13,08,9.60
2016,02,06,13,09,12.00
2016,02,06,13,10,9.10
2016,02,06,13,11,10.20
2016,02,06,13,12,9.90
2016,02,06,13,13,9.90
2016,02,06,13,14,9.30
2016,02,06,13,15,8.50
2016,02,06,13,16,7.60
2016,02,06,13,17,9.50
2016,02,06,13,18,10.90
2016,02,06,13,19,9.80
2016,02,06,13,20,7.60
2016,02,06,13,21,6.30
2016,02,06,13,22,7.50
2016,02,06,13,23,9.20
2016,02,06,13,24,9.20
2016,02,06,13,25,9.20
2016,02,06,13,26,10.20
2016,02,06,13,27,9.00
2016,02,06,13,28,9.50
2016,02,06,13,29,8.20
2016,02,06,13,30,8.90
2016,02,06,13,31,10.30
2016,02,06,13,32,9.10
2016,02,06,13,33,8.50
2016,02,06,13,34,9.90
2016,02,06,13,35,10.80
2016,02,06,13,36,9.90
2016,02,06,13,37,10.30
2016,02,06,13,38,9.00
2016,02,06,13,39,10.30
2016,02,06,13,40,7.60
2016,02,06,13,41,6.40
2016,02,06,13,42,10.00
2016,02,06,13,43,8.80
2016,02,06,13,44,6.50
2016,02,06,13,45,7.10
2016,02,06,13,46,12.50
2016,02,06,13,47,11.30
2016,02,06,13,48,9.00
2016,02,06,13,49,8.70
2016,02,06,13,50,9.40
2016,02,06,13,51,9.50
2016,02,06,13,52,11.70
2016,02,06,13,53,8.80
2016,02,06,13,54,6.80
2016,02,06,13,55,6.90
2016,02,06,13,56,7.70
2016,02,06,13,57,7.40
2016,02,06,13,58,9.70
2016,02,06,13,59,8.40
2016,02,06,14,00,8.50
2016,02,06,14,01,7.60
2016,02,06,14,02,6.80
2016,02,06,14,03,9.10
2016,02,06,14,04,9.80
2016,02,06,14,05,8.40
2016,02,06,14,06,9.30
2016,02,06,14,07,11.20
2016,02,06,14,08,12.10
2016,02,06,14,09,9.90
2016,02,06,14,10,9.70
2016,02,06,14,11,9.00
2016,02,06,14,12,10.10
2016,02,06,14,13,8.80
2016,02,06,14,14,7.60
2016,02,06,14,15,8.50
2016,02,06,14,16,6.90
2016,02,06,14,17,7.70
2016,02,06,14,18,6.10
2016,02,06,14,19,8.70
2016,02,06,14,20,9.20
2016,02,06,14,21,6.40
2016,02,06,14,22,7.70
2016,02,06,14,23,7.10
2016,02,06,14,24,7.90
2016,02,06,14,25,8.70
2016,02,06,14,26,8.60
2016,02,06,14,27,7.20
2016,02,06,14,28,7.40
2016,02,06,14,29,6.70
2016,02,06,14,30,8.00
2016,02,06,14,31,9.20
2016,02,06,14,32,7.20
2016,02,06,14,33,6.30
2016,02,06,14,34,7.10
2016,02,06,14,35,8.70
2016,02,06,14,36,6.00
2016,02,06,14,37,7.40
2016,02,06,14,38,11.70
2016,02,06,14,39,12.10
2016,02,06,14,40,8.20
2016,02,06,14,41,7.30
2016,02,06,14,42,6.90
2016,02,06,14,43,10.30
2016,02,06,14,44,9.00
2016,02,06,14,45,7.70
2016,02,06,14,46,10.90
2016,02,06,14,47,11.30
2016,02,06,14,48,10.70
2016,02,06,14,49,10.10
2016,02,06,14,50,9.50
2016,02,06,14,51,9.00
2016,02,06,14,52,10.40
2016,02,06,14,53,9.70
2016,02,06,14,54,8.00
2016,02,06,14,55,8.90
2016,02,06,14,56,8.90
2016,02,06,14,57,7.70
2016,02,06,14,58,8.50
2016,02,06,14,59,7.40
2016,02,06,15,00,5.60
2016,02,06,15,01,6.60
2016,02,06,15,02,8.10
2016,02,06,15,03,8.10
2016,02,06,15,04,8.50
2016,02,06,15,05,9.00
2016,02,06,15,06,9.60
2016,02,06,15,07,10.50
2016,02,06,15,08,7.70
2016,02,06,15,09,7.80
2016,02,06,15,10,7.60
2016,02,06,15,11,6.40
2016,02,06,15,12,6.80
2016,02,06,15,13,8.70
2016,02,06,15,14,5.60
2016,02,06,15,15,6.10
2016,02,06,15,16,7.40
2016,02,06,15,17,5.10
2016,02,06,15,18,7.40
2016,02,06,15,19,10.80
2016,02,06,15,20,10.50
2016,02,06,15,21,8.90
2016,02,06,15,22,8.30
2016,02,06,15,23,8.40
2016,02,06,15,24,6.60
2016,02,06,15,25,6.70
2016,02,06,15,26,4.70
2016,02,06,15,27,8.90
2016,02,06,15,28,10.40
2016,02,06,15,29,13.10
2016,02,06,15,30,8.10
2016,02,06,15,31,9.90
2016,02,06,15,32,10.70
2016,02,06,15,33,12.60
2016,02,06,15,34,14.40
2016,02,06,15,35,12.30
2016,02,06,15,36,12.60
2016,02,06,15,37,10.40
2016,02,06,15,38,7.50
2016,02,06,15,39,9.90
2016,02,06,15,40,9.40
2016,02,06,15,41,9.40
2016,02,06,15,42,9.90
2016,02,06,15,43,11.20
2016,02,06,15,44,9.30
2016,02,06,15,45,8.00
2016,02,06,15,46,8.20
2016,02,06,15,47,8.80
2016,02,06,15,48,8.60
2016,02,06,15,49,10.00
2016,02,06,15,50,9.30
2016,02,06,15,51,10.80
2016,02,06,15,52,12.20
2016,02,06,15,53,12.00
2016,02,06,15,54,9.80
2016,02,06,15,55,9.80
2016,02,06,15,56,11.10
2016,02,06,15,57,8.40
2016,02,06,15,58,9.10
2016,02,06,15,59,9.70
2016,02,06,16,00,9.00
2016,02,06,16,01,14.10
2016,02,06,16,02,10.00
2016,02,06,16,03,11.80
2016,02,06,16,04,11.80
2016,02,06,16,05,14.90
2016,02,06,16,06,12.40
2016,02,06,16,07,11.40
2016,02,06,16,08,12.00
2016,02,06,16,09,10.00
2016,02,06,16,10,11.60
2016,02,06,16,11,9.70
2016,02,06,16,12,10.60
2016,02,06,16,13,8.30
2016,02,06,16,14,8.40
2016,02,06,16,15,7.30
2016,02,06,16,16,9.80
2016,02,06,16,17,7.70
2016,02,06,16,18,7.30
2016,02,06,16,19,7.30
2016,02,06,16,20,6.50
2016,02,06,16,21,9.10
2016,02,06,16,22,6.40
2016,02,06,16,23,7.20
2016,02,06,16,24,6.50
2016,02,06,16,25,7.70
2016,02,06,16,26,6.30
2016,02,06,16,27,8.90
2016,02,06,16,28,7.50
2016,02,06,16,29,7.00
2016,02,06,16,30,6.50
2016,02,06,16,31,5.60
2016,02,06,16,32,4.50
2016,02,06,16,33,6.00
2016,02,06,16,34,6.20
2016,02,06,16,35,5.90
2016,02,06,16,36,6.50
2016,02,06,16,37,4.70
2016,02,06,16,38,5.40
2016,02,06,16,39,4.70
2016,02,06,16,40,5.70
2016,02,06,16,41,5.10
2016,02,06,16,42,3.80
2016,02,06,16,43,4.00
2016,02,06,16,44,4.50
2016,02,06,16,45,4.40
2016,02,06,16,46,3.80
2016,02,06,16,47,3.70
2016,02,06,16,48,4.80
2016,02,06,16,49,6.40
2016,02,06,16,50,5.30
2016,02,06,16,51,6.10
2016,02,06,16,52,5.80
2016,02,06,16,53,4.00
2016,02,06,16,54,3.90
2016,02,06,16,55,3.80
2016,02,06,16,56,4.00
2016,02,06,16,57,3.90
2016,02,06,16,58,4.50
2016,02,06,16,59,4.30
2016,02,06,17,00,4.40
2016,02,06,17,01,4.10
2016,02,06,17,02,3.20
2016,02,06,17,03,4.60
2016,02,06,17,04,3.70
2016,02,06,17,05,4.40
2016,02,06,17,06,3.90
2016,02,06,17,07,3.70
2016,02,06,17,08,3.80
2016,02,06,17,09,3.40
2016,02,06,17,10,4.10
2016,02,06,17,11,4.10
2016,02,06,17,12,4.60
2016,02,06,17,13,3.50
2016,02,06,17,14,3.00
2016,02,06,17,15,2.90
2016,02,06,17,16,3.00
2016,02,06,17,17,2.60
2016,02,06,17,18,3.00
2016,02,06,17,19,2.60
2016,02,06,17,20,3.40
2016,02,06,17,21,3.80
2016,02,06,17,22,3.90
2016,02,06,17,23,3.40
2016,02,06,17,24,3.30
2016,02,06,17,25,2.80
2016,02,06,17,26,2.30
2016,02,06,17,27,2.10
2016,02,06,17,28,2.70
2016,02,06,17,29,1.80
2016,02,06,17,30,1.30
2016,02,06,17,31,0.70
2016,02,06,17,32,0.50
2016,02,06,17,33,1.40
2016,02,06,17,34,0.90
2016,02,06,17,35,1.80
2016,02,06,17,36,2.60
2016,02,06,17,37,3.10
2016,02,06,17,38,2.40
2016,02,06,17,39,3.20
2016,02,06,17,40,3.00
2016,02,06,17,41,3.20
2016,02,06,17,42,3.40
2016,02,06,17,43,3.20
2016,02,06,17,44,3.70
2016,02,06,17,45,3.50
2016,02,06,17,46,3.10
2016,02,06,17,47,3.00
2016,02,06,17,48,3.40
2016,02,06,17,49,2.40
2016,02,06,17,50,2.50
2016,02,06,17,51,1.50
2016,02,06,17,52,1.80
2016,02,06,17,53,2.40
2016,02,06,17,54,2.20
2016,02,06,17,55,3.00
2016,02,06,17,56,3.50
2016,02,06,17,57,3.00
2016,02,06,17,58,3.40
2016,02,06,17,59,3.40
2016,02,06,18,00,3.10
2016,02,06,18,01,3.60
2016,02,06,18,02,3.00
2016,02,06,18,03,2.90